| time (UTC) | temp F | wind direction | speed MPH | gust MPH | rain 1hr in | rain 24hr in | rain mn in | humidity % | barometer mb |
| 20260508210535 | 70 | 324 | 4.0 | 9.0 | 0.00 | 0.00 | 0.00 | 27 | 1002.3 |
| 20260508210055 | 70 | 327 | 3.0 | 8.0 | 0.00 | 0.00 | 0.00 | 28 | 1002.3 |
| 20260508205530 | 71 | 323 | 1.0 | 6.0 | 0.00 | 0.00 | 0.00 | 28 | 1002.4 |
| 20260508205055 | 71 | 233 | 2.0 | 6.0 | 0.00 | 0.00 | 0.00 | 27 | 1002.5 |
| 20260508204522 | 71 | 344 | 1.0 | 10.0 | 0.00 | 0.00 | 0.00 | 29 | 1002.6 |
| 20260508204043 | 71 | 218 | 2.0 | 10.0 | 0.00 | 0.00 | 0.00 | 29 | 1002.6 |
| 20260508203516 | 70 | 218 | 1.0 | 6.0 | 0.00 | 0.00 | 0.00 | 29 | 1002.7 |
| 20260508203057 | 70 | 327 | 1.0 | 6.0 | 0.00 | 0.00 | 0.00 | 27 | 1002.8 |
| 20260508202535 | 70 | 317 | 3.0 | 11.0 | 0.00 | 0.00 | 0.00 | 27 | 1002.9 |
| 20260508202055 | 70 | 319 | 3.0 | 11.0 | 0.00 | 0.00 | 0.00 | 28 | 1003.0 |
| 20260508201505 | 70 | 335 | 4.0 | 11.0 | 0.00 | 0.00 | 0.00 | 30 | 1003.2 |
| 20260508201051 | 70 | 207 | 2.0 | 10.0 | 0.00 | 0.00 | 0.00 | 28 | 1003.1 |
| 20260508200523 | 70 | 302 | 2.0 | 9.0 | 0.00 | 0.00 | 0.00 | 32 | 1003.3 |
| 20260508200055 | 70 | 329 | 2.0 | 8.0 | 0.00 | 0.00 | 0.00 | 30 | 1003.4 |
| 20260508195603 | 69 | 321 | 2.0 | 11.0 | 0.00 | 0.00 | 0.00 | 33 | 1003.4 |
| 20260508195013 | 69 | 299 | 2.0 | 11.0 | 0.00 | 0.00 | 0.00 | 28 | 1003.5 |
| 20260508194531 | 69 | 297 | 3.0 | 10.0 | 0.00 | 0.00 | 0.00 | 29 | 1003.6 |
| 20260508194050 | 70 | 334 | 3.0 | 8.0 | 0.00 | 0.00 | 0.00 | 30 | 1003.7 |
| 20260508193525 | 69 | 321 | 2.0 | 9.0 | 0.00 | 0.00 | 0.00 | 29 | 1003.9 |
| 20260508193053 | 69 | 31 | 3.0 | 9.0 | 0.00 | 0.00 | 0.00 | 29 | 1003.9 |
| 20260508192519 | 68 | 321 | 2.0 | 9.0 | 0.00 | 0.00 | 0.00 | 29 | 1004.0 |
| 20260508192039 | 68 | 292 | 1.0 | 10.0 | 0.00 | 0.00 | 0.00 | 29 | 1004.0 |
| 20260508191559 | 69 | 349 | 5.0 | 10.0 | 0.00 | 0.00 | 0.00 | 28 | 1004.0 |
| 20260508191009 | 69 | 161 | 2.0 | 10.0 | 0.00 | 0.00 | 0.00 | 28 | 1004.1 |
| 20260508190529 | 70 | 273 | 2.0 | 11.0 | 0.00 | 0.00 | 0.00 | 28 | 1004.1 |
| 20260508190003 | 69 | 307 | 4.0 | 11.0 | 0.00 | 0.00 | 0.00 | 28 | 1004.1 |
| 20260508185546 | 70 | 311 | 3.0 | 10.0 | 0.00 | 0.00 | 0.00 | 26 | 1004.2 |
| 20260508185021 | 70 | 283 | 3.0 | 10.0 | 0.00 | 0.00 | 0.00 | 28 | 1004.2 |
| 20260508184541 | 70 | 90 | 2.0 | 12.0 | 0.00 | 0.00 | 0.00 | 28 | 1004.2 |
| 20260508184100 | 69 | 325 | 7.0 | 12.0 | 0.00 | 0.00 | 0.00 | 27 | 1004.2 |
| 20260508183539 | 69 | 317 | 4.0 | 13.0 | 0.00 | 0.00 | 0.00 | 27 | 1004.3 |
| 20260508183056 | 69 | 327 | 6.0 | 13.0 | 0.00 | 0.00 | 0.00 | 27 | 1004.4 |
| 20260508182505 | 68 | 295 | 2.0 | 10.0 | 0.00 | 0.00 | 0.00 | 30 | 1004.6 |
| 20260508182029 | 69 | 274 | 2.0 | 10.0 | 0.00 | 0.00 | 0.00 | 28 | 1004.6 |
| 20260508181608 | 70 | 265 | 2.0 | 10.0 | 0.00 | 0.00 | 0.00 | 28 | 1004.6 |
| 20260508181105 | 70 | 302 | 3.0 | 14.0 | 0.00 | 0.00 | 0.00 | 28 | 1004.8 |
| 20260508180539 | 70 | 296 | 3.0 | 10.0 | 0.00 | 0.00 | 0.00 | 28 | 1004.7 |
| 20260508180118 | 70 | 292 | 2.0 | 8.0 | 0.00 | 0.00 | 0.00 | 28 | 1005.0 |
| 20260508175509 | 70 | 297 | 2.0 | 10.0 | 0.00 | 0.00 | 0.00 | 28 | 1005.1 |
| 20260508175028 | 70 | 313 | 2.0 | 8.0 | 0.00 | 0.00 | 0.00 | 28 | 1005.2 |
| 20260508174548 | 69 | 298 | 1.0 | 8.0 | 0.00 | 0.00 | 0.00 | 33 | 1005.2 |
| 20260508174023 | 69 | 292 | 1.0 | 8.0 | 0.00 | 0.00 | 0.00 | 31 | 1005.4 |
| 20260508173556 | 68 | 333 | 3.0 | 11.0 | 0.00 | 0.00 | 0.00 | 30 | 1005.5 |
| 20260508173014 | 68 | 299 | 5.0 | 15.0 | 0.00 | 0.00 | 0.00 | 28 | 1005.6 |
| 20260508172541 | 68 | 338 | 6.0 | 15.0 | 0.00 | 0.00 | 0.00 | 28 | 1005.7 |
| 20260508172028 | 68 | 320 | 2.0 | 6.0 | 0.00 | 0.00 | 0.00 | 30 | 1005.8 |
| 20260508171600 | 68 | 319 | 2.0 | 6.0 | 0.00 | 0.00 | 0.00 | 30 | 1005.9 |
| 20260508171032 | 68 | 254 | 1.0 | 4.0 | 0.00 | 0.00 | 0.00 | 34 | 1006.0 |
| 20260508170501 | 67 | 325 | 0.0 | 5.0 | 0.00 | 0.00 | 0.00 | 32 | 1006.1 |
| 20260508170023 | 66 | 334 | 1.0 | 6.0 | 0.00 | 0.00 | 0.00 | 34 | 1006.2 |
| 20260508165502 | 66 | 293 | 2.0 | 12.0 | 0.00 | 0.00 | 0.00 | 31 | 1006.3 |
| 20260508165055 | 66 | 310 | 2.0 | 12.0 | 0.00 | 0.00 | 0.00 | 30 | 1006.4 |
| 20260508164522 | 66 | 329 | 4.0 | 11.0 | 0.00 | 0.00 | 0.00 | 33 | 1006.4 |
| 20260508164057 | 65 | 244 | 2.0 | 5.0 | 0.00 | 0.00 | 0.00 | 34 | 1006.4 |
| 20260508163518 | 64 | 334 | 1.0 | 5.0 | 0.00 | 0.00 | 0.00 | 38 | 1006.6 |
| 20260508163047 | 64 | 306 | 0.0 | 4.0 | 0.00 | 0.00 | 0.00 | 38 | 1006.6 |
| 20260508162609 | 64 | 331 | 0.0 | 5.0 | 0.00 | 0.00 | 0.00 | 37 | 1006.7 |
| 20260508162041 | 63 | 332 | 2.0 | 8.0 | 0.00 | 0.00 | 0.00 | 37 | 1006.7 |
| 20260508161507 | 63 | 338 | 1.0 | 8.0 | 0.00 | 0.00 | 0.00 | 38 | 1006.8 |
| 20260508161035 | 63 | 321 | 2.0 | 8.0 | 0.00 | 0.00 | 0.00 | 36 | 1006.8 |
| 20260508160554 | 63 | 319 | 1.0 | 6.0 | 0.00 | 0.00 | 0.00 | 36 | 1006.9 |
| 20260508160006 | 63 | 329 | 3.0 | 8.0 | 0.00 | 0.00 | 0.00 | 39 | 1006.9 |
| 20260508155549 | 62 | 279 | 2.0 | 8.0 | 0.00 | 0.00 | 0.00 | 41 | 1007.0 |
| 20260508155025 | 61 | 313 | 2.0 | 6.0 | 0.00 | 0.00 | 0.00 | 39 | 1007.1 |
| 20260508154609 | 61 | 346 | 2.0 | 9.0 | 0.00 | 0.00 | 0.00 | 39 | 1007.1 |
| 20260508154019 | 60 | 340 | 3.0 | 10.0 | 0.00 | 0.00 | 0.00 | 38 | 1007.2 |
| 20260508153603 | 60 | 305 | 2.0 | 9.0 | 0.00 | 0.00 | 0.00 | 38 | 1007.3 |
| 20260508153041 | 60 | 329 | 2.0 | 10.0 | 0.00 | 0.00 | 0.00 | 38 | 1007.3 |
| 20260508152518 | 60 | 315 | 2.0 | 11.0 | 0.00 | 0.00 | 0.00 | 38 | 1007.3 |
| 20260508152102 | 60 | 360 | 5.0 | 11.0 | 0.00 | 0.00 | 0.00 | 38 | 1007.3 |
| 20260508151528 | 59 | 298 | 5.0 | 10.0 | 0.00 | 0.00 | 0.00 | 38 | 1007.2 |
| 20260508151011 | 59 | 347 | 5.0 | 10.0 | 0.00 | 0.00 | 0.00 | 38 | 1007.4 |
| 20260508150542 | 59 | 281 | 4.0 | 10.0 | 0.00 | 0.00 | 0.00 | 38 | 1007.5 |
| 20260508150101 | 58 | 355 | 4.0 | 11.0 | 0.00 | 0.00 | 0.00 | 39 | 1007.5 |
| 20260508145519 | 58 | 342 | 5.0 | 11.0 | 0.00 | 0.00 | 0.00 | 40 | 1007.5 |
| 20260508145047 | 58 | 355 | 4.0 | 10.0 | 0.00 | 0.00 | 0.00 | 39 | 1007.6 |
| 20260508144604 | 58 | 311 | 3.0 | 10.0 | 0.00 | 0.00 | 0.00 | 39 | 1007.6 |
| 20260508144043 | 58 | 287 | 5.0 | 11.0 | 0.00 | 0.00 | 0.00 | 39 | 1007.6 |
| 20260508143606 | 57 | 336 | 5.0 | 12.0 | 0.00 | 0.00 | 0.00 | 39 | 1007.7 |
| 20260508143022 | 57 | 336 | 5.0 | 10.0 | 0.00 | 0.00 | 0.00 | 40 | 1007.6 |
| 20260508142545 | 57 | 336 | 3.0 | 11.0 | 0.00 | 0.00 | 0.00 | 41 | 1007.7 |
| 20260508142002 | 56 | 329 | 4.0 | 10.0 | 0.00 | 0.00 | 0.00 | 41 | 1007.7 |
| 20260508141656 | 56 | 279 | 4.0 | 10.0 | 0.00 | 0.00 | 0.00 | 41 | 1007.7 |
| 20260508141008 | 56 | 290 | 4.0 | 9.0 | 0.00 | 0.00 | 0.00 | 40 | 1007.9 |
| 20260508140501 | 55 | 333 | 3.0 | 8.0 | 0.00 | 0.00 | 0.00 | 41 | 1007.8 |
| 20260508140028 | 55 | 342 | 3.0 | 9.0 | 0.00 | 0.00 | 0.00 | 42 | 1007.9 |
| 20260508135507 | 54 | 323 | 2.0 | 9.0 | 0.00 | 0.00 | 0.00 | 43 | 1007.9 |
| 20260508135032 | 54 | 321 | 3.0 | 11.0 | 0.00 | 0.00 | 0.00 | 42 | 1007.9 |
| 20260508134509 | 54 | 301 | 1.0 | 10.0 | 0.00 | 0.00 | 0.00 | 44 | 1007.9 |
| 20260508134038 | 54 | 341 | 4.0 | 11.0 | 0.00 | 0.00 | 0.00 | 42 | 1008.0 |
| 20260508133519 | 54 | 342 | 4.0 | 11.0 | 0.00 | 0.00 | 0.00 | 42 | 1008.1 |
| 20260508133007 | 54 | 320 | 2.0 | 10.0 | 0.00 | 0.00 | 0.00 | 42 | 1008.1 |
| 20260508132544 | 54 | 259 | 2.0 | 12.0 | 0.00 | 0.00 | 0.00 | 43 | 1008.1 |
| 20260508132020 | 54 | 273 | 5.0 | 12.0 | 0.00 | 0.00 | 0.00 | 42 | 1008.1 |
| 20260508131609 | 54 | 319 | 5.0 | 10.0 | 0.00 | 0.00 | 0.00 | 42 | 1008.1 |
| 20260508131041 | 54 | 319 | 2.0 | 6.0 | 0.00 | 0.00 | 0.00 | 42 | 1008.1 |
| 20260508130527 | 53 | 329 | 3.0 | 10.0 | 0.00 | 0.00 | 0.00 | 44 | 1008.2 |
| 20260508130100 | 52 | 319 | 2.0 | 10.0 | 0.00 | 0.00 | 0.00 | 43 | 1008.2 |
| 20260508125533 | 52 | 280 | 2.0 | 11.0 | 0.00 | 0.00 | 0.00 | 44 | 1008.2 |
| 20260508125054 | 51 | 271 | 3.0 | 11.0 | 0.00 | 0.00 | 0.00 | 44 | 1008.2 |
| 20260508124506 | 51 | 271 | 3.0 | 9.0 | 0.00 | 0.00 | 0.00 | 44 | 1008.2 |
| 20260508124031 | 50 | 288 | 2.0 | 6.0 | 0.00 | 0.00 | 0.00 | 46 | 1008.3 |
| 20260508123555 | 50 | 302 | 2.0 | 8.0 | 0.00 | 0.00 | 0.00 | 45 | 1008.3 |
| 20260508123030 | 49 | 316 | 3.0 | 9.0 | 0.00 | 0.00 | 0.00 | 45 | 1008.3 |
| 20260508122505 | 49 | 321 | 3.0 | 9.0 | 0.00 | 0.00 | 0.00 | 46 | 1008.3 |
| 20260508122053 | 49 | 312 | 3.0 | 6.0 | 0.00 | 0.00 | 0.00 | 46 | 1008.3 |
| 20260508121642 | 48 | 305 | 2.0 | 5.0 | 0.00 | 0.00 | 0.00 | 47 | 1008.3 |
| 20260508121008 | 48 | 317 | 1.0 | 6.0 | 0.00 | 0.00 | 0.00 | 47 | 1008.2 |
| 20260508120535 | 47 | 360 | 2.0 | 6.0 | 0.00 | 0.00 | 0.00 | 47 | 1008.2 |
| 20260508120059 | 47 | 360 | 2.0 | 6.0 | 0.00 | 0.00 | 0.00 | 47 | 1008.2 |
| 20260508115533 | 46 | 360 | 1.0 | 6.0 | 0.00 | 0.00 | 0.00 | 48 | 1008.2 |
| 20260508115057 | 46 | 360 | 1.0 | 6.0 | 0.00 | 0.00 | 0.00 | 48 | 1008.2 |
| 20260508114532 | 46 | 360 | 2.0 | 8.0 | 0.00 | 0.00 | 0.00 | 48 | 1008.2 |
| 20260508114021 | 45 | 360 | 2.0 | 8.0 | 0.00 | 0.00 | 0.00 | 49 | 1008.2 |
| 20260508113550 | 45 | 360 | 2.0 | 5.0 | 0.00 | 0.00 | 0.00 | 49 | 1008.2 |
| 20260508113024 | 45 | 360 | 2.0 | 6.0 | 0.00 | 0.00 | 0.00 | 50 | 1008.3 |
| 20260508112545 | 45 | 360 | 1.0 | 6.0 | 0.00 | 0.00 | 0.00 | 50 | 1008.2 |
| 20260508112034 | 44 | 360 | 1.0 | 4.0 | 0.00 | 0.00 | 0.00 | 50 | 1008.3 |
| 20260508111513 | 44 | 360 | 1.0 | 4.0 | 0.00 | 0.00 | 0.00 | 51 | 1008.3 |
| 20260508111056 | 44 | 360 | 1.0 | 4.0 | 0.00 | 0.00 | 0.00 | 51 | 1008.3 |
| 20260508110531 | 44 | 360 | 1.0 | 5.0 | 0.00 | 0.00 | 0.00 | 51 | 1008.3 |
| 20260508110057 | 43 | 360 | 1.0 | 5.0 | 0.00 | 0.00 | 0.00 | 52 | 1008.3 |
| 20260508105526 | 43 | 360 | 1.0 | 4.0 | 0.00 | 0.00 | 0.00 | 52 | 1008.3 |
| 20260508105103 | 43 | 360 | 0.0 | 4.0 | 0.00 | 0.00 | 0.00 | 53 | 1008.3 |
| 20260508104513 | 43 | 360 | 0.0 | 2.0 | 0.00 | 0.00 | 0.00 | 52 | 1008.3 |
| 20260508104049 | 43 | 360 | 0.0 | 3.0 | 0.00 | 0.00 | 0.00 | 52 | 1008.4 |
| 20260508103508 | 43 | 360 | 0.0 | 3.0 | 0.00 | 0.00 | 0.00 | 52 | 1008.3 |
| 20260508103120 | 43 | 360 | 1.0 | 4.0 | 0.00 | 0.00 | 0.00 | 52 | 1008.3 |
| 20260508102531 | 43 | 360 | 1.0 | 5.0 | 0.00 | 0.00 | 0.00 | 53 | 1008.4 |
| 20260508102108 | 43 | 360 | 1.0 | 5.0 | 0.00 | 0.00 | 0.00 | 52 | 1008.4 |
| 20260508101540 | 43 | 360 | 1.0 | 3.0 | 0.00 | 0.00 | 0.00 | 53 | 1008.4 |
| 20260508101128 | 43 | 360 | 0.0 | 3.0 | 0.00 | 0.00 | 0.00 | 53 | 1008.5 |
| 20260508100535 | 43 | 360 | 1.0 | 3.0 | 0.00 | 0.00 | 0.00 | 53 | 1008.4 |
| 20260508100011 | 43 | 360 | 0.0 | 3.0 | 0.00 | 0.00 | 0.00 | 52 | 1008.5 |
| 20260508095530 | 43 | 360 | 0.0 | 3.0 | 0.00 | 0.00 | 0.00 | 52 | 1008.5 |
| 20260508095056 | 43 | 360 | 0.0 | 3.0 | 0.00 | 0.00 | 0.00 | 52 | 1008.5 |
| 20260508094523 | 43 | 360 | 0.0 | 3.0 | 0.00 | 0.00 | 0.00 | 52 | 1008.5 |
| 20260508094044 | 43 | 360 | 0.0 | 3.0 | 0.00 | 0.00 | 0.00 | 53 | 1008.5 |
| 20260508093604 | 44 | 360 | 0.0 | 4.0 | 0.00 | 0.00 | 0.00 | 52 | 1008.6 |
| 20260508093040 | 44 | 360 | 0.0 | 4.0 | 0.00 | 0.00 | 0.00 | 52 | 1008.6 |
| 20260508092558 | 44 | 360 | 0.0 | 4.0 | 0.00 | 0.00 | 0.00 | 51 | 1008.6 |
| 20260508092007 | 44 | 360 | 1.0 | 4.0 | 0.00 | 0.00 | 0.00 | 51 | 1008.6 |
| 20260508091552 | 44 | 360 | 2.0 | 4.0 | 0.00 | 0.00 | 0.00 | 51 | 1008.6 |
| 20260508091002 | 44 | 360 | 1.0 | 4.0 | 0.00 | 0.00 | 0.00 | 52 | 1008.6 |
| 20260508090522 | 44 | 360 | 2.0 | 5.0 | 0.00 | 0.00 | 0.00 | 52 | 1008.6 |
| 20260508090016 | 43 | 360 | 1.0 | 5.0 | 0.00 | 0.00 | 0.00 | 53 | 1008.6 |
| 20260508085600 | 43 | 360 | 0.0 | 5.0 | 0.00 | 0.00 | 0.00 | 53 | 1008.6 |
| 20260508085009 | 43 | 360 | 1.0 | 5.0 | 0.00 | 0.00 | 0.00 | 53 | 1008.7 |
| 20260508084545 | 43 | 360 | 0.0 | 4.0 | 0.00 | 0.00 | 0.00 | 53 | 1008.7 |
| 20260508084006 | 44 | 360 | 0.0 | 3.0 | 0.00 | 0.00 | 0.00 | 53 | 1008.7 |
| 20260508083547 | 44 | 360 | 0.0 | 3.0 | 0.00 | 0.00 | 0.00 | 52 | 1008.6 |
| 20260508083022 | 44 | 360 | 1.0 | 3.0 | 0.00 | 0.00 | 0.00 | 52 | 1008.7 |
| 20260508082542 | 44 | 360 | 0.0 | 3.0 | 0.00 | 0.00 | 0.00 | 52 | 1008.7 |
| 20260508082102 | 44 | 360 | 0.0 | 3.0 | 0.00 | 0.00 | 0.00 | 52 | 1008.7 |
| 20260508081536 | 44 | 360 | 0.0 | 4.0 | 0.00 | 0.00 | 0.00 | 52 | 1008.8 |
| 20260508081013 | 44 | 360 | 0.0 | 3.0 | 0.00 | 0.00 | 0.00 | 51 | 1008.9 |
| 20260508080554 | 44 | 360 | 0.0 | 3.0 | 0.00 | 0.00 | 0.00 | 51 | 1008.9 |
| 20260508080032 | 44 | 360 | 1.0 | 3.0 | 0.00 | 0.00 | 0.00 | 52 | 1008.9 |
| 20260508075555 | 45 | 360 | 0.0 | 4.0 | 0.00 | 0.00 | 0.00 | 52 | 1009.0 |
| 20260508075021 | 45 | 360 | 1.0 | 4.0 | 0.00 | 0.00 | 0.00 | 52 | 1008.9 |
| 20260508074542 | 45 | 360 | 1.0 | 4.0 | 0.00 | 0.00 | 0.00 | 50 | 1008.9 |
| 20260508074103 | 45 | 360 | 1.0 | 4.0 | 0.00 | 0.00 | 0.00 | 51 | 1009.0 |
| 20260508073525 | 45 | 360 | 0.0 | 4.0 | 0.00 | 0.00 | 0.00 | 51 | 1009.1 |
| 20260508073055 | 45 | 360 | 0.0 | 5.0 | 0.00 | 0.00 | 0.00 | 51 | 1009.1 |
| 20260508072528 | 45 | 360 | 1.0 | 5.0 | 0.00 | 0.00 | 0.00 | 51 | 1009.1 |
| 20260508072051 | 45 | 360 | 1.0 | 5.0 | 0.00 | 0.00 | 0.00 | 50 | 1009.2 |
| 20260508071516 | 45 | 360 | 1.0 | 6.0 | 0.00 | 0.00 | 0.00 | 51 | 1009.2 |
| 20260508071042 | 45 | 360 | 1.0 | 6.0 | 0.00 | 0.00 | 0.00 | 50 | 1009.2 |
| 20260508070516 | 45 | 360 | 2.0 | 5.0 | 0.00 | 0.00 | 0.00 | 50 | 1009.2 |
| 20260508065533 | 45 | 360 | 1.0 | 8.0 | 0.00 | 0.00 | 0.00 | 50 | 1009.2 |
| 20260508065049 | 45 | 360 | 1.0 | 8.0 | 0.00 | 0.00 | 0.00 | 50 | 1009.3 |
| 20260508064615 | 45 | 360 | 1.0 | 3.0 | 0.00 | 0.00 | 0.00 | 50 | 1009.3 |
| 20260508064020 | 45 | 360 | 1.0 | 4.0 | 0.00 | 0.00 | 0.00 | 50 | 1009.3 |
| 20260508063540 | 45 | 360 | 0.0 | 3.0 | 0.00 | 0.00 | 0.00 | 50 | 1009.4 |
| 20260508063020 | 46 | 360 | 0.0 | 3.0 | 0.00 | 0.00 | 0.00 | 50 | 1009.4 |
| 20260508062534 | 46 | 360 | 0.0 | 4.0 | 0.00 | 0.00 | 0.00 | 50 | 1009.4 |
| 20260508062100 | 46 | 360 | 2.0 | 5.0 | 0.00 | 0.00 | 0.00 | 50 | 1009.6 |
| 20260508061536 | 45 | 360 | 2.0 | 5.0 | 0.00 | 0.00 | 0.00 | 51 | 1009.6 |
| 20260508061029 | 44 | 360 | 1.0 | 5.0 | 0.00 | 0.00 | 0.00 | 53 | 1009.6 |
| 20260508060546 | 44 | 360 | 0.0 | 2.0 | 0.00 | 0.00 | 0.00 | 55 | 1009.6 |
| 20260508060109 | 44 | 360 | 0.0 | 2.0 | 0.00 | 0.00 | 0.00 | 56 | 1009.7 |
| 20260508055539 | 44 | 360 | 0.0 | 2.0 | 0.00 | 0.00 | 0.00 | 57 | 1009.7 |
| 20260508055100 | 44 | 360 | 0.0 | 4.0 | 0.00 | 0.00 | 0.00 | 56 | 1009.7 |
| 20260508054510 | 43 | 360 | 0.0 | 4.0 | 0.00 | 0.00 | 0.00 | 59 | 1009.7 |
| 20260508054030 | 42 | 360 | 0.0 | 2.0 | 0.00 | 0.00 | 0.00 | 61 | 1009.8 |
| 20260508053504 | 42 | 360 | 0.0 | 1.0 | 0.00 | 0.00 | 0.00 | 63 | 1009.7 |
| 20260508053028 | 41 | 360 | 0.0 | 1.0 | 0.00 | 0.00 | 0.00 | 67 | 1009.8 |
| 20260508052544 | 41 | 360 | 0.0 | 2.0 | 0.00 | 0.00 | 0.00 | 70 | 1009.9 |
| 20260508052015 | 40 | 360 | 0.0 | 1.0 | 0.00 | 0.00 | 0.00 | 73 | 1009.9 |
| 20260508051553 | 40 | 360 | 0.0 | 1.0 | 0.00 | 0.00 | 0.00 | 73 | 1009.9 |
| 20260508051008 | 40 | 360 | 0.0 | 0.0 | 0.00 | 0.00 | 0.00 | 75 | 1009.9 |
| 20260508050528 | 40 | 360 | 0.0 | 1.0 | 0.00 | 0.00 | 0.00 | 74 | 1010.0 |
| 20260508050048 | 40 | 360 | 0.0 | 1.0 | 0.00 | 0.00 | 0.00 | 75 | 1009.9 |
| 20260508045522 | 40 | 360 | 0.0 | 0.0 | 0.00 | 0.00 | 0.00 | 75 | 1010.0 |
| 20260508045044 | 40 | 360 | 0.0 | 0.0 | 0.00 | 0.00 | 0.00 | 75 | 1010.0 |
| 20260508044604 | 39 | 360 | 0.0 | 0.0 | 0.00 | 0.00 | 0.00 | 73 | 1010.0 |
| 20260508044013 | 39 | 360 | 0.0 | 0.0 | 0.00 | 0.00 | 0.00 | 75 | 1010.1 |
| 20260508043531 | 39 | 360 | 0.0 | 0.0 | 0.00 | 0.00 | 0.00 | 75 | 1010.1 |
| 20260508043008 | 39 | 360 | 0.0 | 0.0 | 0.00 | 0.00 | 0.00 | 76 | 1010.2 |
| 20260508042528 | 39 | 360 | 0.0 | 0.0 | 0.00 | 0.00 | 0.00 | 76 | 1010.1 |
| 20260508042108 | 39 | 360 | 0.0 | 0.0 | 0.00 | 0.00 | 0.00 | 74 | 1010.2 |
| 20260508041516 | 40 | 360 | 0.0 | 0.0 | 0.00 | 0.00 | 0.00 | 75 | 1010.2 |
| 20260508041037 | 40 | 360 | 0.0 | 0.0 | 0.00 | 0.00 | 0.00 | 75 | 1010.2 |
| 20260508040557 | 40 | 360 | 0.0 | 0.0 | 0.00 | 0.00 | 0.00 | 74 | 1010.2 |
| 20260508040009 | 40 | 360 | 0.0 | 0.0 | 0.00 | 0.00 | 0.00 | 74 | 1010.2 |
| 20260508035525 | 40 | 360 | 0.0 | 0.0 | 0.00 | 0.00 | 0.00 | 73 | 1010.3 |
| 20260508035111 | 40 | 360 | 0.0 | 0.0 | 0.00 | 0.00 | 0.00 | 70 | 1010.3 |
| 20260508034528 | 40 | 360 | 0.0 | 0.0 | 0.00 | 0.00 | 0.00 | 69 | 1010.4 |
| 20260508034041 | 41 | 360 | 0.0 | 0.0 | 0.00 | 0.00 | 0.00 | 71 | 1010.4 |
| 20260508033516 | 41 | 360 | 0.0 | 0.0 | 0.00 | 0.00 | 0.00 | 70 | 1010.4 |
| 20260508033036 | 41 | 360 | 0.0 | 0.0 | 0.00 | 0.00 | 0.00 | 68 | 1010.4 |
| 20260508032606 | 42 | 360 | 0.0 | 0.0 | 0.00 | 0.00 | 0.00 | 66 | 1010.4 |
| 20260508032017 | 42 | 360 | 0.0 | 0.0 | 0.00 | 0.00 | 0.00 | 64 | 1010.5 |
| 20260508031541 | 42 | 360 | 0.0 | 0.0 | 0.00 | 0.00 | 0.00 | 62 | 1010.4 |
| 20260508031014 | 42 | 360 | 0.0 | 0.0 | 0.00 | 0.00 | 0.00 | 66 | 1010.5 |
| 20260508030535 | 43 | 360 | 0.0 | 0.0 | 0.00 | 0.00 | 0.00 | 66 | 1010.5 |
| 20260508030115 | 43 | 360 | 0.0 | 0.0 | 0.00 | 0.00 | 0.00 | 64 | 1010.5 |
| 20260508025513 | 44 | 360 | 0.0 | 0.0 | 0.00 | 0.00 | 0.00 | 61 | 1010.5 |
| 20260508025053 | 44 | 360 | 0.0 | 0.0 | 0.00 | 0.00 | 0.00 | 62 | 1010.5 |
| 20260508024543 | 45 | 360 | 0.0 | 0.0 | 0.00 | 0.00 | 0.00 | 65 | 1010.5 |
| 20260508024005 | 45 | 360 | 0.0 | 0.0 | 0.00 | 0.00 | 0.00 | 62 | 1010.5 |
| 20260508023536 | 46 | 360 | 0.0 | 0.0 | 0.00 | 0.00 | 0.00 | 58 | 1010.5 |
| 20260508023058 | 46 | 360 | 0.0 | 0.0 | 0.00 | 0.00 | 0.00 | 56 | 1010.4 |
| 20260508022532 | 47 | 360 | 0.0 | 0.0 | 0.00 | 0.00 | 0.00 | 54 | 1010.4 |
| 20260508022002 | 47 | 360 | 0.0 | 0.0 | 0.00 | 0.00 | 0.00 | 58 | 1010.3 |
| 20260508021555 | 48 | 360 | 0.0 | 0.0 | 0.00 | 0.00 | 0.00 | 60 | 1010.3 |
| 20260508021019 | 48 | 360 | 0.0 | 0.0 | 0.00 | 0.00 | 0.00 | 55 | 1010.3 |
| 20260508020557 | 49 | 360 | 0.0 | 0.0 | 0.00 | 0.00 | 0.00 | 47 | 1010.2 |
| 20260508020036 | 49 | 360 | 0.0 | 0.0 | 0.00 | 0.00 | 0.00 | 46 | 1010.1 |
| 20260508015504 | 50 | 360 | 0.0 | 0.0 | 0.00 | 0.00 | 0.00 | 45 | 1010.0 |
| 20260508015049 | 51 | 360 | 0.0 | 0.0 | 0.00 | 0.00 | 0.00 | 47 | 1010.1 |
| 20260508014551 | 51 | 360 | 0.0 | 0.0 | 0.00 | 0.00 | 0.00 | 44 | 1010.0 |
| 20260508014011 | 52 | 360 | 0.0 | 0.0 | 0.00 | 0.00 | 0.00 | 47 | 1010.0 |
| 20260508013534 | 53 | 360 | 0.0 | 0.0 | 0.00 | 0.00 | 0.00 | 45 | 1009.9 |
| 20260508013101 | 54 | 360 | 0.0 | 0.0 | 0.00 | 0.00 | 0.00 | 38 | 1009.9 |
| 20260508012556 | 54 | 304 | 0.0 | 0.0 | 0.00 | 0.00 | 0.00 | 36 | 1009.8 |
| 20260508012033 | 55 | 304 | 0.0 | 2.0 | 0.00 | 0.00 | 0.00 | 35 | 1009.8 |
| 20260508011519 | 55 | 304 | 0.0 | 2.0 | 0.00 | 0.00 | 0.00 | 35 | 1009.9 |
| 20260508011100 | 55 | 304 | 0.0 | 3.0 | 0.00 | 0.00 | 0.00 | 35 | 1009.8 |
| 20260508010542 | 55 | 304 | 0.0 | 3.0 | 0.00 | 0.00 | 0.00 | 35 | 1009.8 |
| 20260508010027 | 55 | 290 | 0.0 | 2.0 | 0.00 | 0.00 | 0.00 | 34 | 1009.8 |
| 20260508005603 | 55 | 281 | 0.0 | 2.0 | 0.00 | 0.00 | 0.00 | 34 | 1009.7 |
| 20260508005041 | 55 | 281 | 0.0 | 0.0 | 0.00 | 0.00 | 0.00 | 34 | 1009.8 |
| 20260508004525 | 56 | 281 | 0.0 | 3.0 | 0.00 | 0.00 | 0.00 | 34 | 1009.8 |
| 20260508004054 | 56 | 281 | 0.0 | 4.0 | 0.00 | 0.00 | 0.00 | 34 | 1009.7 |
| 20260508003544 | 56 | 242 | 0.0 | 4.0 | 0.00 | 0.00 | 0.00 | 34 | 1009.7 |
| 20260508003027 | 56 | 331 | 1.0 | 3.0 | 0.00 | 0.00 | 0.00 | 33 | 1009.8 |
| 20260508002541 | 56 | 334 | 0.0 | 4.0 | 0.00 | 0.00 | 0.00 | 33 | 1009.8 |
| 20260508002008 | 56 | 226 | 0.0 | 3.0 | 0.00 | 0.00 | 0.00 | 33 | 1009.8 |
| 20260508001559 | 57 | 221 | 0.0 | 5.0 | 0.00 | 0.00 | 0.00 | 33 | 1009.8 |
| 20260508001031 | 57 | 275 | 1.0 | 5.0 | 0.00 | 0.00 | 0.00 | 32 | 1009.8 |
| 20260508000553 | 57 | 260 | 1.0 | 3.0 | 0.00 | 0.00 | 0.00 | 32 | 1009.8 |
| 20260508000039 | 57 | 208 | 1.0 | 9.0 | 0.00 | 0.00 | 0.00 | 32 | 1009.8 |
| 20260507235529 | 57 | 324 | 2.0 | 9.0 | 0.00 | 0.00 | 0.00 | 32 | 1009.9 |
| 20260507235014 | 57 | 314 | 1.0 | 4.0 | 0.00 | 0.00 | 0.00 | 32 | 1010.0 |
| 20260507234601 | 57 | 325 | 2.0 | 5.0 | 0.00 | 0.00 | 0.00 | 30 | 1010.0 |
| 20260507234033 | 58 | 314 | 0.0 | 8.0 | 0.00 | 0.00 | 0.00 | 31 | 1010.0 |
| 20260507233601 | 58 | 330 | 3.0 | 8.0 | 0.00 | 0.00 | 0.00 | 30 | 1010.1 |
| 20260507233057 | 58 | 326 | 2.0 | 8.0 | 0.00 | 0.00 | 0.00 | 30 | 1010.2 |
| 20260507232549 | 58 | 324 | 1.0 | 6.0 | 0.00 | 0.00 | 0.00 | 29 | 1010.1 |
| 20260507232022 | 59 | 333 | 2.0 | 8.0 | 0.00 | 0.00 | 0.00 | 32 | 1010.2 |
| 20260507231548 | 59 | 316 | 2.0 | 9.0 | 0.00 | 0.00 | 0.00 | 29 | 1010.2 |
| 20260507231021 | 59 | 322 | 3.0 | 9.0 | 0.00 | 0.00 | 0.00 | 30 | 1010.2 |
| 20260507230535 | 59 | 315 | 2.0 | 8.0 | 0.00 | 0.00 | 0.00 | 29 | 1010.3 |
| 20260507230008 | 59 | 112 | 2.0 | 8.0 | 0.00 | 0.00 | 0.00 | 29 | 1010.3 |
| 20260507225553 | 59 | 326 | 2.0 | 6.0 | 0.00 | 0.00 | 0.00 | 29 | 1010.3 |
| 20260507225003 | 59 | 321 | 1.0 | 5.0 | 0.00 | 0.00 | 0.00 | 29 | 1010.4 |
| 20260507224601 | 59 | 343 | 2.0 | 9.0 | 0.00 | 0.00 | 0.00 | 30 | 1010.4 |
| 20260507224007 | 59 | 98 | 4.0 | 9.0 | 0.00 | 0.00 | 0.00 | 28 | 1010.4 |
| 20260507223539 | 59 | 225 | 1.0 | 5.0 | 0.00 | 0.00 | 0.00 | 30 | 1010.5 |
| 20260507223033 | 59 | 342 | 2.0 | 6.0 | 0.00 | 0.00 | 0.00 | 28 | 1010.5 |
| 20260507222511 | 59 | 286 | 2.0 | 9.0 | 0.00 | 0.00 | 0.00 | 29 | 1010.5 |
| 20260507222052 | 60 | 160 | 1.0 | 5.0 | 0.00 | 0.00 | 0.00 | 31 | 1010.4 |
| 20260507221502 | 59 | 280 | 1.0 | 5.0 | 0.00 | 0.00 | 0.00 | 32 | 1010.5 |
| 20260507221024 | 59 | 257 | 1.0 | 6.0 | 0.00 | 0.00 | 0.00 | 32 | 1010.4 |
| 20260507220541 | 59 | 74 | 2.0 | 12.0 | 0.00 | 0.00 | 0.00 | 30 | 1010.5 |
| 20260507220015 | 59 | 317 | 5.0 | 12.0 | 0.00 | 0.00 | 0.00 | 30 | 1010.6 |
| 20260507215535 | 59 | 345 | 3.0 | 11.0 | 0.00 | 0.00 | 0.00 | 29 | 1010.5 |
| 20260507215053 | 59 | 344 | 4.0 | 11.0 | 0.00 | 0.00 | 0.00 | 29 | 1010.7 |
| 20260507214524 | 58 | 310 | 2.0 | 9.0 | 0.00 | 0.00 | 0.00 | 29 | 1010.7 |
| 20260507214109 | 59 | 317 | 2.0 | 8.0 | 0.00 | 0.00 | 0.00 | 30 | 1010.7 |
| 20260507213519 | 59 | 323 | 2.0 | 11.0 | 0.00 | 0.00 | 0.00 | 29 | 1010.7 |
| 20260507213100 | 59 | 326 | 3.0 | 11.0 | 0.00 | 0.00 | 0.00 | 29 | 1010.7 |
| 20260507212542 | 59 | 244 | 0.0 | 6.0 | 0.00 | 0.00 | 0.00 | 31 | 1010.8 |
| 20260507212011 | 59 | 315 | 2.0 | 9.0 | 0.00 | 0.00 | 0.00 | 30 | 1010.8 |
| 20260507211531 | 59 | 322 | 2.0 | 12.0 | 0.00 | 0.00 | 0.00 | 30 | 1010.9 |